Regional Weather Roundup
Issued by NWS

Home | Current Version | Previous Version | Graphics & Text | Print | Product List | Glossary Off
Versions: 1 2 3 4 5 6 7 8 9 10 11 12 13 14 15 16 17 18 19 20 21 22 23 24 25 26 27 28 29 30 31 32 33 34 35 36 37 38 39 40 41 42 43 44 45 46 47 48 49 50

000
ASUS43 KTOP 262108
RWRKS

WEATHER ROUNDUP FOR KANSAS
NATIONAL WEATHER SERVICE GOODLAND KS
400 PM CDT SAT MAY 26 2018

NOTE:  "FAIR" INDICATES FEW OR NO CLOUDS BELOW 12,000 FEET WITH NO
SIGNIFICANT WEATHER AND/OR OBSTRUCTIONS TO VISIBILITY.

KSZ001>006-013>018-027>032-041>047-262200-
NORTHWEST KANSAS

CITY           SKY/WX    TMP DP  RH WIND       PRES   REMARKS
GOODLAND       PTSUNNY   91  48  22 S23G37    29.84F
HAYS           SUNNY     96  55  25 S14G21    29.80F
HILL CITY      SUNNY     93  57  29 S14G21    29.81F
RUSSELL        SUNNY     96  58  27 SE15      29.79F HX  95
$$

KSZ061>065-074>080-084>089-262200-
SOUTHWEST KANSAS

CITY           SKY/WX    TMP DP  RH WIND       PRES   REMARKS
DODGE CITY     SUNNY     98  44  15 SE24G33   29.84F
ELKHART        MOSUNNY   97  49  19 S23       29.86S
GARDEN CITY    SUNNY     94  40  15 SE24G37   29.83F
GREAT BEND     SUNNY     95  54  25 S15G23    29.81F
LIBERAL        CLOUDY    97  44  16 SE18G26   29.84F
PRATT          CLOUDY    92  53  26 S15       29.84S
$$

KSZ066>073-081>083-090>101-262200-
SOUTHEAST KANSAS

CITY           SKY/WX    TMP DP  RH WIND       PRES   REMARKS
CHANUTE        SUNNY     89  70  53 S8        29.83F
COFFEYVILLE    SUNNY     91  66  43 SE8       29.82F
HUTCHINSON     SUNNY     97  56  25 S13G18    29.81S HX  95
MEDICINE LODGE   N/A     93  60  33 S10G20    29.81F
NEWTON         SUNNY     93  63  36 S10       29.83F
PARSONS        SUNNY     89  67  47 VRB3      29.84F
WICHITA INTL   MOSUNNY   95  60  31 S6        29.81F HX  95
WICHITA JABRA  SUNNY     92  66  42 SE8       29.82F
WICHITA MCCONL SUNNY     94  63  35 S9        29.82F
WINFIELD       SUNNY     91  67  44 SE8       29.82F
$$

KSZ007>012-019>026-033>040-048>060-102>105-262200-
NORTHEAST KANSAS

CITY           SKY/WX    TMP DP  RH WIND       PRES   REMARKS
CONCORDIA      SUNNY     95  63  34 SW10      29.79F HX  96
EMPORIA        SUNNY     90  68  48 S9        29.82F
LAWRENCE       SUNNY     94  72  48 SW13      29.77F HX 102
MANHATTAN      SUNNY     99  58  25 VRB5      29.76F HX  98
OLATHE IND     SUNNY     93  72  50 S13       29.80F HX 101
OLATHE EXE     SUNNY     89  72  56 SW10      29.80F HX  96
SALINA         SUNNY     99  57  24 S13       29.78F HX  98
TOPEKA BILLARD MOSUNNY   94  67  41 SW8G17    29.76F HX  97
TOPEKA FORBES  SUNNY     96  71  44 S12       29.78F HX 103
$$



USA.gov is the U.S. government's official web portal to all federal, state and local government web resources and services.